Bowie - northern half: Past 24 Hour Conditions

 

Stony Rapids Airport

08:00 PM CST 20 August 2014
This table is a summary of hourly weather conditions for the past 24 hours.
Date / Time
(CST)
Wind(knots) Conditions Visibility(km) Pressure(kPa) Air tempC) Relative humidity(%) Dew pointC)
20 August 2014
20:00 W 8 Cloudy 16 101.3 15 74 10
19:00 W 11 Cloudy 16 101.2 17 64 10
18:00 W 9 Partly Cloudy 16 101.2 17 63 10
17:00 WNW 5 Mainly Sunny 16 101.1 18 59 10
16:00 W 5 Mostly Cloudy 16 101.1 19 64 12
15:00 S 3 Mostly Cloudy 16 101.1 17 67 11
14:00 SW 4 Cloudy 16 101.0 16 75 12
13:00 W 4 Cloudy 16 101.0 16 78 12
12:00 W 5 Light Rain 3 101.0 14 90 12
11:00 ENE 3 Cloudy 16 100.9 15 84 12
10:00 ENE 2 Cloudy 16 100.9 15 86 12
9:00 calm Cloudy 16 100.9 15 86 12
8:00 E 4 Cloudy 16 100.9 14 88 12
7:00 ESE 3 Cloudy 16 100.8 13 92 12
6:00 ESE 2 Cloudy 16 100.8 13 94 12
5:00 SE 3 Cloudy 16 100.7 13 93 12
4:00 E 6 Cloudy 16 100.7 13 92 12
3:00 E 5 Cloudy 16 100.7 13 91 12
2:00 ENE 4 Cloudy 16 100.7 13 92 12
1:00 E 4 Cloudy 16 100.6 13 93 12
0:00 E 4 Cloudy 16 100.6 13 94 12
19 August 2014
23:00 E 5 Light Rain 16 100.6 13 93 12
22:00 ESE 5 Mostly Cloudy 16 100.6 14 90 12
21:00 E 5 Cloudy 16 100.6 14 88 13
20:00 E 6 Mostly Cloudy 16 100.5 15 86 13
 
Map of Mackenzie - Mackenzie River marine weather areas Great Slave Lake - 45141 Great Slave Lake North Arm - 45150 Herschel Island Komakuk Beach Shingle Point Airport Aklavik Airport Cape Parry Airport Fort Good Hope Airport Tulita Airport Fort Providence Fort Reliance Fort Resolution Airport Fort Simpson Airport Hay River/Merlyn Carter Airport Inner Whaleback Rocks Inuvik Airport Keats Point Norman Wells Airport Paulatuk Airport Pelly Island Tuktoyaktuk Airport Wrigley Airport Yellowknife Airport Kugluktuk Airport Hat Island Cambridge Bay Airport Cape Peel West Stefansson Island Ulukhaktok Airport Sachs Harbour Airport Thomsen River Egg Island Fort Chipewyan Airport Stony Rapids Airport Liverpool Bay Little Chicago Lutselke Airport Storm Hills Croker River Prairie River Uranium City Bathurst Inlet Gateshead Island
Legend: buoyBuoy land stationLand Station